Theta_e
345 354 365 367 365 365 363 359 358 358 359 360 360 359 360 361 361 360 360 360 360 360 357 356 355 354 355 357 358 360 361 361 360 359 358 358 358 358 359 358 357 354 357
349 355 365 366 365 365 363 361 360 360 361 360 359 359 360 361 360 360 359 361 360 358 357 357 355 354 352 355 356 358 360 360 360 360 359 357 357 357 357 357 357 354 357
350 356 362 365 365 364 363 362 360 361 361 360 360 359 360 361 360 360 360 361 360 358 357 357 356 355 354 353 355 356 358 360 358 356 356 351 351 357 356 356 356 355 356
351 354 360 365 364 364 363 361 360 360 360 360 361 359 360 361 361 361 361 360 359 358 358 357 356 355 355 355 354 354 356 358 355 351 344 348 349 355 355 355 356 356 355
348 353 360 364 364 363 362 361 360 360 360 360 360 359 360 361 362 362 361 362 360 357 357 357 356 357 356 355 356 357 356 355 354 343 337 340 346 352 354 353 353 353 353
347 353 362 363 363 363 361 360 360 360 360 361 359 359 359 359 361 361 362 361 358 359 359 358 358 358 358 358 357 355 355 354 354 340 337 344 343 354 353 352 351 352 353
348 354 359 363 363 362 360 359 359 359 361 361 360 359 359 360 360 360 359 360 360 360 358 357 359 359 357 355 357 355 354 356 346 336 340 343 346 353 351 350 350 350 351
349 352 357 363 363 361 360 360 360 360 361 361 360 360 359 360 360 359 358 358 359 358 358 357 357 355 354 353 354 354 356 356 341 341 342 343 351 351 349 350 349 349 348
350 351 353 355 359 361 360 360 361 360 361 360 360 360 359 359 358 358 357 357 357 357 357 356 356 355 354 354 355 356 357 357 341 341 344 343 351 350 348 348 348 347 347
346 349 347 349 350 354 356 360 361 360 360 360 359 359 358 358 357 357 354 356 357 357 357 357 356 356 356 355 355 357 357 355 341 340 343 345 352 350 349 349 349 349 348
343 346 348 346 346 349 353 355 360 359 359 359 358 358 355 349 349 350 352 355 357 357 357 357 357 356 356 355 355 354 351 348 348 344 345 354 353 351 350 350 350 349 348
339 342 345 347 346 347 353 350 350 351 353 353 352 350 346 343 343 345 349 355 357 357 357 357 357 356 354 346 350 351 345 345 347 346 348 356 355 352 352 351 350 350 349
337 341 344 345 345 346 348 346 347 346 349 348 348 347 343 342 339 342 340 348 348 354 347 351 350 349 347 342 346 343 343 343 344 347 354 356 356 354 353 352 351 350 350
336 338 342 343 342 343 345 346 345 345 344 343 344 344 340 337 335 335 340 342 342 341 342 340 342 344 343 343 344 343 338 337 338 340 349 356 357 356 355 354 354 353 352
334 337 339 341 340 341 344 343 343 344 343 342 341 342 340 335 336 336 339 339 339 338 336 336 337 339 342 341 344 343 340 341 333 336 342 357 357 358 357 356 355 355 354
334 334 336 338 339 342 343 341 342 343 343 342 340 342 342 338 337 336 339 339 337 336 336 334 336 337 338 336 342 342 336 340 339 343 347 352 356 356 358 358 357 356 356
334 334 334 335 335 341 340 339 340 341 343 342 341 341 343 341 339 338 336 335 337 335 335 335 336 338 336 336 338 343 344 343 342 343 347 349 353 356 356 357 356 356 355
336 332 334 337 336 338 338 337 339 341 341 341 341 341 342 341 341 339 335 333 335 335 335 336 336 334 336 335 334 340 341 340 337 348 348 346 344 348 353 354 352 352 352
337 334 333 334 334 337 337 336 336 336 336 339 338 341 341 343 342 340 338 335 337 335 336 336 336 333 334 334 339 339 339 337 338 347 344 340 340 340 341 350 350 348 347
338 338 340 336 336 335 337 336 335 334 334 334 335 339 342 343 342 341 339 336 334 337 337 335 334 332 337 341 343 342 339 341 344 344 341 339 335 336 336 341 341 341 345
334 333 335 341 342 336 337 337 337 336 337 338 337 339 343 344 343 341 339 337 335 335 335 336 331 330 332 337 330 332 333 336 337 340 338 335 334 334 332 331 330 332 338
329 328 329 330 330 333 340 340 337 339 339 338 338 331 330 332 334 340 338 337 335 337 337 335 334 333 332 335 327 322 326 329 334 333 335 335 332 333 332 330 327 326 326
324 324 325 326 326 326 329 334 337 338 337 335 332 327 328 331 332 333 335 334 334 334 336 336 336 331 332 334 330 323 316 316 324 331 330 332 332 330 329 327 326 324 321
321 321 318 320 323 323 325 328 329 329 330 330 329 328 328 331 331 334 333 330 329 329 328 333 338 333 331 329 327 330 324 321 316 320 328 330 330 329 328 326 324 322 320
317 316 316 316 316 318 318 322 323 323 323 325 327 327 329 330 331 334 333 330 329 329 328 327 327 329 331 329 328 326 324 322 319 317 317 326 329 330 329 329 323 321 319
316 315 314 314 313 314 315 315 316 317 318 317 317 316 317 323 322 318 327 329 328 328 329 330 328 326 327 329 331 331 328 323 320 318 316 322 325 326 325 322 321 319 317
Wind_Speed
8 12 17 19 21 20 20 19 17 17 17 16 17 17 16 15 16 17 17 17 17 16 16 15 15 14 14 15 15 15 17 17 17 18 15 15 15 17 16 17 16 12 17
16 12 18 21 22 21 20 19 17 16 15 15 16 16 16 15 16 16 16 16 15 16 16 15 14 14 15 15 15 15 16 16 17 17 19 18 18 17 17 17 16 13 16
14 13 15 21 21 21 21 19 18 17 15 15 15 15 15 15 16 15 15 15 15 16 15 14 14 14 15 16 15 15 15 15 15 16 16 8 10 17 17 16 16 16 15
15 11 14 21 21 21 20 19 18 17 16 15 15 15 14 14 14 14 14 14 14 14 14 13 13 14 15 16 15 14 12 11 11 11 5 6 11 17 16 16 16 16 15
12 10 15 20 21 20 20 19 17 17 16 14 14 15 14 12 11 12 13 12 13 13 12 11 12 13 13 13 12 10 9 7 8 10 6 5 5 13 15 16 14 15 14
10 8 16 19 20 20 19 18 17 17 16 15 14 14 14 13 10 10 11 10 11 12 10 10 9 9 10 10 9 9 7 6 7 7 6 7 6 13 15 16 15 14 14
13 10 13 19 19 20 19 18 17 16 15 15 15 14 13 11 10 10 9 9 9 9 8 9 8 7 7 8 6 6 3 2 5 9 5 5 6 14 15 16 15 15 13
16 11 13 18 18 19 18 17 16 16 16 15 14 13 12 11 10 10 9 8 8 8 6 6 6 7 8 7 7 5 3 7 11 10 7 3 13 14 15 15 15 14 14
14 11 9 10 15 19 18 17 16 15 16 15 14 13 12 10 10 9 9 9 8 7 7 7 6 5 4 4 7 4 4 8 9 7 9 3 15 16 15 15 15 14 14
14 12 9 6 6 11 11 17 16 14 15 14 14 13 12 11 9 9 9 9 8 7 7 7 7 6 2 2 7 2 5 10 7 7 6 3 13 16 15 15 15 13 13
10 11 12 9 6 6 9 11 15 18 15 13 13 13 10 5 6 7 8 9 10 9 9 8 7 5 3 4 7 7 8 2 6 5 4 14 11 15 14 14 14 13 11
15 13 13 14 11 8 8 7 5 8 6 6 5 6 4 5 5 7 8 11 10 10 10 9 7 6 5 3 3 8 3 3 3 7 6 16 12 13 14 13 14 12 11
18 13 14 13 11 12 8 5 3 2 2 4 6 5 5 4 4 3 3 4 4 9 4 5 4 3 4 4 4 5 5 4 2 3 10 14 12 12 13 13 13 12 11
17 15 16 14 13 10 8 6 4 4 3 2 4 6 4 3 4 4 4 4 4 3 6 5 4 5 5 5 8 6 6 5 3 2 5 12 12 13 13 13 13 13 13
16 15 16 17 15 13 12 9 7 6 5 5 4 5 4 4 4 4 4 4 4 4 4 4 5 5 6 7 7 8 7 8 5 2 3 13 11 12 13 13 13 13 13
17 17 16 17 16 15 13 14 10 9 9 7 5 6 7 5 5 4 4 4 4 4 4 5 5 5 7 6 7 7 8 8 10 6 4 5 11 11 11 11 13 13 14
10 16 18 14 15 15 14 13 10 9 9 8 9 9 9 8 7 7 5 4 6 5 6 5 4 5 6 4 6 6 3 3 7 5 4 4 5 11 11 10 9 7 7
5 13 16 14 9 14 12 9 8 8 8 8 7 6 10 9 9 8 6 5 5 3 5 4 5 5 7 6 5 5 4 3 5 5 5 3 3 4 10 13 11 9 6
7 5 14 10 13 11 9 9 8 8 7 8 5 7 9 10 9 8 6 6 6 3 3 3 3 5 8 6 6 5 4 4 8 6 7 5 5 4 4 10 11 10 10
9 9 7 1 7 6 2 3 2 3 4 4 4 5 9 10 10 8 6 6 6 5 4 4 5 1 9 9 7 7 5 5 6 8 8 6 5 5 5 7 7 6 9
11 13 11 7 6 3 2 1 2 3 2 3 3 2 3 6 7 8 7 6 6 6 7 5 3 5 2 5 6 6 2 1 8 7 7 6 6 6 6 6 4 4 6
10 10 10 11 10 6 3 1 0 1 2 3 6 7 6 9 8 7 7 9 7 4 5 6 6 4 3 7 5 4 3 0 1 3 5 7 8 6 7 8 7 6 4
10 9 9 9 9 6 6 2 2 3 3 3 3 3 4 6 6 5 5 10 11 13 7 5 6 7 4 9 7 7 4 5 3 3 6 6 8 7 7 7 7 7 7
7 8 8 8 11 7 7 7 7 3 1 2 2 1 2 1 1 2 4 5 5 10 16 16 4 3 6 7 2 4 2 6 5 3 3 6 7 9 10 7 8 8 8
7 7 7 9 11 9 9 8 5 6 3 3 4 7 5 4 3 1 0 3 5 3 9 10 10 6 2 3 2 2 2 2 1 5 3 7 7 9 8 9 9 9 10
6 7 7 10 9 9 10 10 9 8 6 5 6 5 6 6 7 9 7 2 3 5 7 10 9 8 5 4 5 6 5 5 5 4 3 7 11 7 7 7 10 9 8
Wind_Direction
159 158 145 139 138 131 127 124 120 118 114 112 112 112 108 107 109 109 112 113 115 116 116 114 114 114 112 109 106 101 98 102 99 91 94 109 101 99 96 96 96 91 95
140 149 142 137 137 133 131 130 128 124 119 118 116 117 115 114 112 111 113 114 117 118 118 117 118 117 114 113 113 108 105 101 92 87 88 103 101 99 98 99 97 95 95
136 141 140 138 137 134 133 133 132 128 127 122 118 118 114 114 115 114 116 116 118 119 118 120 118 115 115 113 112 112 110 108 100 101 96 98 102 103 99 98 98 96 94
133 135 140 139 137 135 135 135 133 133 131 128 125 122 120 119 118 120 121 121 123 123 122 120 115 112 110 110 111 111 114 123 96 111 89 95 107 107 104 97 98 101 100
124 127 141 138 137 136 136 136 134 133 131 130 129 128 125 122 125 126 125 126 129 129 127 124 115 109 108 110 111 115 123 134 109 108 95 97 103 111 108 103 96 95 94
123 123 135 137 136 135 139 138 137 136 136 135 134 132 130 129 122 120 128 140 142 137 138 130 120 119 121 121 128 136 145 148 120 121 118 120 113 121 115 111 110 102 96
133 131 139 142 141 141 143 142 141 141 142 138 137 137 133 132 130 126 129 128 130 132 146 133 137 139 136 128 133 102 95 73 145 124 120 130 120 121 120 116 114 111 105
135 132 144 149 147 144 144 146 147 149 145 139 140 140 139 138 135 136 133 134 141 147 159 151 157 170 155 157 138 119 117 100 122 125 130 156 132 129 128 123 120 119 117
135 133 136 145 148 146 146 149 152 153 144 146 145 143 144 146 143 147 144 150 157 168 176 176 176 208 167 146 92 93 108 122 137 136 141 172 141 137 135 132 129 127 123
146 142 136 138 138 144 151 154 155 156 152 153 151 152 153 155 155 159 165 164 173 183 192 204 199 196 205 85 87 106 130 116 127 132 135 159 152 140 143 140 135 135 134
146 151 149 142 132 129 147 165 162 162 161 160 161 163 160 159 167 178 183 188 187 193 204 209 220 199 173 108 110 86 60 86 114 134 143 153 162 147 151 149 142 142 144
159 167 165 158 151 147 156 165 164 174 162 164 165 168 163 176 181 187 198 198 201 203 209 205 215 211 150 120 150 112 109 109 137 142 155 150 166 160 159 160 150 152 157
170 165 168 164 161 156 157 138 153 135 164 165 170 176 184 182 200 210 209 205 193 205 210 200 200 176 141 138 144 147 145 150 65 129 155 151 165 170 172 169 161 160 174
174 170 166 166 160 174 146 156 165 156 173 190 201 190 178 202 210 213 215 209 202 197 197 195 182 158 150 142 152 157 160 143 76 332 170 160 168 178 179 183 174 173 185
169 169 178 169 172 170 165 166 171 180 185 193 201 201 180 193 215 216 223 204 216 199 191 200 196 160 167 166 154 161 185 145 120 195 272 166 168 189 192 192 187 191 193
174 175 175 179 180 167 175 172 180 184 187 188 197 202 199 195 207 214 216 214 227 212 205 187 208 155 166 171 171 189 220 136 137 151 196 160 184 195 199 202 207 205 208
180 166 177 181 183 176 184 174 176 188 189 196 197 202 201 202 205 211 225 203 226 213 206 196 206 123 139 177 190 191 221 71 121 150 152 130 152 143 144 141 157 168 201
122 165 179 181 174 184 183 182 182 182 185 198 204 206 208 201 208 209 202 214 222 218 198 202 175 160 156 174 186 192 162 147 124 154 133 131 160 144 139 129 123 112 139
30 127 179 183 168 182 180 183 189 182 180 195 193 203 214 217 207 207 207 203 180 189 187 244 148 136 155 173 179 168 174 167 161 161 156 167 175 154 135 146 144 162 164
31 39 45 136 135 127 140 168 167 166 193 175 200 209 219 220 221 207 214 223 180 160 193 184 183 184 169 163 156 149 170 187 189 176 172 163 162 156 140 163 162 158 164
40 41 24 46 14 120 110 146 135 187 174 187 190 53 356 281 254 220 214 206 210 203 186 205 195 159 131 148 119 122 109 193 196 177 166 170 167 173 164 162 164 148 162
44 50 46 41 39 10 37 355 31 250 94 62 84 58 41 50 48 32 14 344 299 179 178 176 181 174 141 189 140 97 142 319 263 219 184 175 179 180 185 177 165 151 146
54 48 56 72 65 32 15 343 22 33 31 13 66 71 56 49 50 44 41 52 23 360 294 199 190 194 167 199 201 146 132 205 155 212 217 194 186 190 195 181 174 161 154
52 56 52 45 63 46 36 55 53 57 45 8 329 222 236 202 87 82 24 59 39 40 337 323 298 192 170 188 220 256 245 148 170 199 221 210 200 198 192 184 175 173 169
56 52 51 57 55 43 47 44 50 75 41 341 2 355 329 299 278 14 45 25 30 129 296 305 324 18 309 288 246 164 217 146 158 136 181 198 211 209 200 191 179 179 178
59 56 53 62 57 53 54 46 41 46 32 21 12 18 1 9 42 19 345 27 174 248 222 267 306 274 255 254 279 265 228 185 183 159 153 203 208 210 199 181 179 182 176